This is the latest recevied weather packets stored in our database for station/object OK2ZAW-23. If no packets are shown the sender has not sent any weather packets the latest 10 day(s).
| Time | Temp. | Humidity | Pressure | Rain* | Wind** | Luminosity | Snow |
|---|---|---|---|---|---|---|---|
| 1777784197 | 8.33° C | 71% | 1015.9 hPa | - | - | 335 W/m² | - |
| 1777782944 | 7.22° C | 73% | 1015.8 hPa | - | - | 335 W/m² | - |
| 1777782318 | 6.11° C | 75% | 1015.7 hPa | - | - | 335 W/m² | - |
| 1777782005 | 5.56° C | 75% | 1015.7 hPa | - | - | 335 W/m² | - |
| 1777781692 | 5.56° C | 75% | 1015.8 hPa | - | - | 335 W/m² | - |
| 1777781380 | 5° C | 75% | 1015.8 hPa | - | - | 335 W/m² | - |
| 1777781067 | 4.44° C | 75% | 1015.9 hPa | - | - | 335 W/m² | - |
| 1777780754 | 4.44° C | 75% | 1015.9 hPa | - | - | 335 W/m² | - |
| 1777780441 | 4.44° C | 75% | 1016 hPa | - | - | 335 W/m² | - |
| 1777780128 | 4.44° C | 75% | 1016 hPa | - | - | 335 W/m² | - |
| 1777779502 | 4.44° C | 75% | 1015.9 hPa | - | - | 335 W/m² | - |
| 1777779190 | 4.44° C | 76% | 1015.9 hPa | - | - | 335 W/m² | - |
| 1777778564 | 4.44° C | 75% | 1015.8 hPa | - | - | 335 W/m² | - |
| 1777778251 | 4.44° C | 76% | 1015.8 hPa | - | - | 335 W/m² | - |
| 1777777625 | 4.44° C | 76% | 1015.7 hPa | - | - | 335 W/m² | - |
| 1777776999 | 4.44° C | 76% | 1015.8 hPa | - | - | 335 W/m² | - |
| 1777774809 | 5° C | 75% | 1015.9 hPa | - | - | 335 W/m² | - |
| 1777774496 | 5.56° C | 76% | 1015.9 hPa | - | - | 335 W/m² | - |
| 1777773870 | 5.56° C | 77% | 1016.1 hPa | - | - | 335 W/m² | - |
| 1777773245 | 5.56° C | 74% | 1016 hPa | - | - | 335 W/m² | - |
| 1777772618 | 5.56° C | 75% | 1016.2 hPa | - | - | 335 W/m² | - |
| 1777771679 | 5.56° C | 72% | 1016 hPa | - | - | 335 W/m² | - |
| 1777771054 | 6.11° C | 75% | 1016 hPa | - | - | 335 W/m² | - |
| 1777769802 | 6.11° C | 74% | 1016.2 hPa | - | - | 335 W/m² | - |
| 1777769175 | 6.11° C | 67% | 1016.2 hPa | - | - | 335 W/m² | - |
* Rain since midnight (hover to see other rain measurements)
** Current wind speed in m/s (hover to see current wind gust speed)